Temperature
15 15 15 15 15 15 15 15 15 15 15 15 15 15 15 15 15 15 15 15 15 15 15 15 15 15 15 14 14 15 15 15 15 15 15 15 15 15 15 15 15 15 15
15 15 15 15 15 15 15 15 15 15 15 15 15 15 15 15 15 15 15 15 15 15 15 15 14 14 14 14 14 14 14 14 14 14 15 15 14 14 15 15 15 15 15
15 15 15 15 15 15 15 15 15 15 15 15 15 15 15 15 14 14 14 14 14 14 14 14 14 14 14 14 14 14 14 14 14 14 14 14 14 14 14 14 14 14 14
15 15 15 15 15 15 15 15 15 15 15 15 15 14 14 14 14 14 14 14 14 14 14 14 14 14 14 14 14 14 14 14 14 14 14 14 14 14 14 14 14 14 14
15 15 15 15 15 15 15 15 15 15 14 14 14 14 14 14 14 14 14 14 14 14 14 14 14 14 14 14 14 14 14 14 14 14 14 14 14 14 14 14 14 14 14
15 15 15 15 15 15 15 15 14 14 14 14 14 14 14 14 14 14 14 14 14 14 14 14 14 14 14 14 14 14 14 13 13 13 13 13 13 13 13 13 13 14 14
15 15 15 15 15 15 15 14 14 14 14 14 14 14 13 13 14 14 13 13 13 13 14 14 14 14 14 14 14 13 13 13 13 13 13 13 13 13 13 13 13 13 13
15 15 15 15 14 14 14 14 14 14 14 14 14 14 13 13 13 13 13 13 13 13 13 13 13 13 13 13 13 13 13 13 13 13 13 13 13 13 13 13 13 13 13
15 14 14 14 14 14 14 14 14 14 14 14 14 13 13 13 13 13 13 13 13 13 13 13 13 13 13 13 13 13 13 13 13 13 13 13 13 13 13 13 13 13 13
15 14 14 14 14 14 14 14 14 14 14 14 14 13 13 13 13 13 13 13 13 13 13 13 13 13 13 13 13 13 13 13 13 12 13 13 12 13 13 13 13 13 13
15 14 14 14 14 14 14 14 14 14 14 13 13 14 14 13 13 13 13 13 13 13 13 13 13 13 13 13 13 13 13 13 13 12 12 12 12 12 12 12 12 13 13
15 14 14 14 14 14 14 14 14 14 14 14 13 13 13 13 13 13 13 13 13 13 13 13 13 13 13 12 12 12 12 13 13 12 12 12 12 12 12 12 12 12 12
15 14 14 14 14 14 14 14 14 14 14 14 13 13 13 13 13 13 13 13 12 12 12 12 13 13 12 12 12 12 12 12 12 12 12 12 12 12 12 12 12 12 12
15 15 14 14 14 14 14 14 14 14 14 14 13 13 13 13 13 13 13 13 13 12 12 12 12 12 12 12 12 12 12 12 12 12 12 12 12 12 12 12 12 12 12
15 15 14 14 14 14 14 14 14 14 14 14 14 13 13 13 13 13 13 13 13 12 12 12 12 12 12 12 12 12 12 12 12 12 12 12 12 12 12 12 12 12 11
15 15 14 14 14 14 14 14 14 14 14 14 14 13 13 13 13 13 13 13 13 13 12 12 12 12 12 12 12 12 12 12 11 12 12 12 12 12 11 11 11 11 11
15 14 14 14 14 14 14 14 14 14 14 14 14 13 13 13 13 13 13 13 13 13 12 12 12 12 12 11 11 11 11 11 11 11 11 11 11 11 11 11 11 11 11
15 14 14 14 14 14 14 14 14 14 14 14 14 14 13 13 13 13 13 13 13 13 12 12 12 12 11 11 11 11 11 11 11 11 11 11 11 11 11 11 11 11 11
14 14 14 14 14 14 14 14 14 14 14 14 14 14 13 13 13 13 13 13 13 13 12 12 12 12 12 11 11 11 11 11 11 11 11 11 11 11 11 11 11 11 11
14 14 14 14 14 14 14 14 14 14 14 14 14 13 13 13 13 13 13 13 13 12 12 12 12 12 12 11 11 11 11 11 11 11 11 10 10 11 11 11 10 10 10
14 14 14 14 14 14 14 14 14 14 14 14 13 13 13 13 13 13 13 13 12 12 12 12 12 12 12 11 11 11 11 11 11 10 10 10 10 10 10 10 10 10 10
14 14 14 13 13 13 13 13 13 13 13 13 13 13 13 13 13 13 12 12 12 12 12 12 12 12 11 11 11 11 11 11 10 10 10 10 10 10 10 10 10 10 10
14 14 13 13 13 13 13 13 13 13 13 13 13 13 13 13 12 12 12 12 12 12 12 11 11 11 11 11 11 11 10 10 10 10 10 10 10 10 10 10 9 9 9
13 13 13 13 13 13 13 13 13 13 13 13 13 12 12 12 12 12 12 12 12 12 11 11 11 11 11 11 11 10 10 10 10 10 10 10 10 10 10 9 9 9 9
13 13 13 13 13 13 13 13 13 13 12 12 12 12 12 12 12 12 12 12 12 11 11 11 11 11 11 10 10 10 10 10 10 10 10 9 9 9 9 9 9 9 9
13 13 13 13 12 13 12 12 12 12 12 12 12 12 11 11 11 11 11 11 11 11 11 11 11 10 10 10 10 10 10 9 9 9 9 9 9 9 9 9 9 9 8
Wind_Speed
3 4 4 5 6 6 5 5 6 7 7 7 8 8 7 8 8 8 9 10 10 9 8 8 7 7 7 7 7 7 7 7 8 7 7 8 8 8 8 8 8 8 9
4 3 4 4 5 5 6 6 6 5 5 6 6 7 7 7 8 8 8 9 11 10 9 9 8 8 8 8 7 7 7 7 8 9 8 8 8 8 8 8 8 8 9
5 4 3 3 4 6 7 7 7 6 5 5 6 6 6 7 7 8 9 9 9 11 11 10 10 10 9 9 9 8 8 8 8 8 8 8 8 8 8 8 8 8 8
5 5 3 3 4 6 6 5 4 5 5 5 5 5 5 6 7 7 8 9 9 9 11 12 11 10 10 10 9 8 8 8 8 8 8 8 8 8 8 8 8 8 8
5 5 3 3 5 5 4 4 4 4 4 4 4 5 5 5 5 7 7 8 9 9 9 10 11 10 10 10 9 9 9 9 9 9 9 9 8 8 8 8 9 9 9
5 5 4 4 4 4 4 4 5 4 3 4 5 5 5 4 5 5 6 7 9 9 10 9 9 9 11 11 10 10 9 9 9 9 10 10 9 9 9 9 9 9 8
4 4 3 3 3 3 3 4 4 4 3 2 3 4 4 4 5 4 5 5 7 8 10 9 9 9 9 11 12 11 10 10 9 10 10 10 10 11 11 11 11 10 10
3 3 3 2 3 3 4 3 3 3 1 1 2 2 2 3 4 5 4 4 5 7 8 9 9 9 9 9 10 11 11 10 11 10 11 11 12 12 12 13 12 11 10
2 3 3 3 2 3 3 2 3 3 2 0 1 2 2 0 1 3 4 4 4 4 5 7 8 8 8 8 9 11 11 11 10 11 11 12 12 12 13 13 13 12 11
2 2 3 3 3 2 2 2 2 2 3 1 1 1 1 3 2 1 3 3 4 4 4 5 6 7 8 7 8 10 10 10 10 10 11 12 12 13 13 13 13 13 13
2 1 2 2 2 2 2 2 2 2 2 2 2 1 2 2 2 2 0 2 3 3 3 3 4 5 6 7 7 8 9 9 10 10 11 11 12 12 12 12 13 13 12
1 1 1 1 2 2 2 2 2 2 1 2 2 2 2 2 2 2 2 1 1 2 2 3 3 4 5 6 6 7 8 9 9 10 10 11 11 11 11 11 12 12 12
1 1 1 1 1 2 2 2 2 1 1 1 2 2 2 2 3 3 3 1 0 2 2 2 2 3 4 5 5 6 7 8 8 9 9 10 10 10 11 11 11 11 11
2 2 1 1 2 1 1 2 1 1 1 1 1 1 1 2 3 3 3 3 1 1 2 2 2 2 3 3 4 5 6 7 7 8 8 9 9 9 10 10 11 11 11
1 1 1 1 1 1 1 1 1 1 1 1 1 1 1 1 2 2 3 3 4 1 1 2 1 2 1 2 3 4 5 6 6 6 7 7 7 8 8 9 9 10 10
1 1 1 1 1 1 1 1 1 1 1 0 1 1 1 1 1 2 2 2 2 3 2 1 2 1 1 1 2 3 3 4 5 5 6 6 6 6 7 7 8 8 8
1 1 1 1 1 1 1 1 1 1 1 0 0 1 1 1 1 1 2 2 2 3 3 1 1 1 0 1 2 2 3 3 3 4 4 4 4 4 5 5 6 6 7
1 2 2 1 1 0 1 1 1 1 1 1 1 1 1 1 1 1 2 2 2 3 4 3 1 0 0 0 1 1 2 2 2 3 3 3 3 3 4 4 4 5 5
1 1 2 1 1 1 1 1 1 1 2 2 2 2 2 2 2 1 2 2 2 2 2 3 1 0 0 1 1 2 2 3 3 3 3 3 3 3 3 3 3 4 4
2 2 1 1 1 1 1 1 1 1 1 1 1 2 2 3 3 3 2 3 3 3 3 2 1 0 0 0 1 0 1 2 2 3 3 3 3 4 3 3 3 3 3
2 2 2 1 1 1 1 1 1 1 1 1 1 1 2 3 4 3 3 3 4 3 2 2 1 1 1 1 1 1 1 1 2 2 2 3 4 4 5 4 3 3 3
2 2 2 1 1 1 2 2 2 1 1 2 2 1 1 1 2 3 4 5 6 5 4 3 2 2 3 3 2 2 2 0 2 1 1 2 2 2 4 4 3 3 3
3 2 2 2 2 2 2 2 2 2 2 2 2 2 1 1 1 1 2 2 3 4 6 5 4 5 4 4 3 2 3 3 3 2 1 1 1 2 3 3 3 2 2
3 3 3 3 2 3 3 3 2 1 1 2 2 2 2 2 1 2 2 1 1 2 3 3 4 5 4 4 4 4 3 2 1 1 2 1 1 2 2 4 3 1 1
3 3 2 3 3 3 3 3 2 1 1 2 2 2 2 2 3 3 3 2 1 1 1 3 3 3 3 4 6 4 3 2 1 2 2 2 2 1 2 2 3 2 2
3 3 2 3 4 4 4 3 3 2 2 2 1 2 3 3 3 4 3 3 3 3 1 1 0 1 1 1 4 4 3 3 1 2 2 2 2 1 1 2 2 3 3
Wind_Direction
68 60 55 53 52 56 63 65 70 72 71 66 63 63 58 55 51 46 36 38 41 45 51 55 51 56 58 50 46 43 44 43 47 45 43 40 38 37 34 30 23 18 16
83 74 65 57 54 60 67 74 77 76 71 68 58 56 57 57 52 47 41 33 35 39 44 51 50 56 56 49 46 47 46 49 50 47 43 39 35 34 32 28 22 19 19
97 89 78 66 62 71 78 80 73 75 73 64 53 49 51 51 50 46 42 37 33 36 45 51 50 52 51 46 46 50 51 51 49 48 42 39 34 33 31 27 24 24 26
103 93 85 76 79 79 81 83 77 74 67 62 53 42 42 45 45 47 47 42 40 37 41 44 44 44 43 39 42 48 51 50 48 48 40 37 34 33 31 29 29 29 32
98 95 88 83 88 83 79 90 76 85 81 71 65 51 39 37 34 44 45 40 39 38 37 37 37 37 38 36 41 46 49 51 47 45 41 38 34 34 33 32 34 34 36
96 98 90 85 91 89 79 84 86 74 81 79 75 58 42 38 39 39 40 41 40 39 38 36 34 32 34 33 41 48 48 49 49 48 46 40 39 38 38 36 37 36 37
99 103 98 89 91 94 101 104 99 87 74 79 76 50 31 35 41 35 36 40 35 33 36 35 34 34 30 31 36 43 44 47 50 49 47 44 44 41 43 45 43 41 40
99 111 113 113 111 107 102 107 114 109 94 68 99 90 31 9 20 26 29 39 32 33 33 31 34 36 35 31 30 39 40 43 46 49 49 48 48 46 44 42 39 37 39
89 102 117 119 120 125 135 138 139 138 149 60 84 128 126 205 342 3 21 30 27 28 21 25 31 31 31 32 31 37 39 42 45 48 49 47 47 47 47 43 39 40 44
76 107 126 130 130 130 135 154 142 146 143 153 77 75 134 152 142 3 354 12 24 30 17 19 24 27 29 32 34 40 38 40 43 44 47 47 47 47 47 45 44 46 49
40 83 131 134 136 137 144 148 143 153 157 166 168 148 107 85 107 147 304 342 7 13 10 7 18 24 24 30 35 44 41 39 46 47 46 45 45 46 45 44 44 46 48
9 25 140 153 166 167 172 182 165 161 168 167 175 172 166 162 170 152 171 241 335 338 355 0 12 15 21 29 36 48 49 45 47 48 46 43 42 43 43 42 43 44 46
262 264 203 185 196 203 195 182 160 172 173 167 186 197 192 187 163 150 147 163 255 320 348 357 358 8 22 29 34 45 49 48 47 47 47 45 43 41 42 41 41 42 44
233 229 213 205 214 209 197 179 171 193 167 179 196 181 179 188 166 164 160 150 123 347 352 325 346 3 15 33 36 42 47 47 44 45 47 48 46 44 44 43 43 44 44
227 202 188 195 212 199 188 166 168 202 159 172 182 172 169 178 167 172 164 164 155 170 288 293 313 331 8 37 36 43 41 39 42 42 44 44 44 45 44 42 42 41 40
206 155 146 151 163 168 153 131 150 192 151 187 187 164 169 183 154 148 167 165 159 162 201 256 244 280 7 65 40 42 35 24 35 39 38 36 37 40 40 40 39 38 37
176 170 173 157 158 171 140 137 184 168 154 265 263 172 208 196 160 154 149 148 154 145 159 262 281 303 55 28 31 49 38 21 18 26 28 26 27 31 34 33 31 31 32
179 179 163 144 156 190 170 175 215 212 189 221 238 196 222 183 153 162 158 167 176 171 160 179 245 336 300 317 9 15 16 15 11 7 8 9 17 22 21 20 20 21 21
147 134 136 155 185 208 210 215 209 217 212 228 227 213 216 169 176 177 171 170 175 164 150 161 203 228 340 41 40 14 19 12 9 0 1 1 2 2 1 1 2 6 10
155 155 160 181 192 202 211 211 204 226 239 252 237 216 208 192 197 188 180 175 162 148 139 144 172 216 224 10 102 57 358 3 360 13 20 19 13 6 354 345 342 347 355
173 173 158 173 189 191 220 212 207 223 233 276 279 240 223 212 208 196 190 181 165 159 153 154 178 201 234 207 214 207 207 335 342 5 15 11 10 6 358 353 351 350 357
165 149 170 191 207 257 253 228 202 203 215 229 255 267 254 246 232 214 207 190 174 171 180 181 198 214 236 226 203 189 174 99 307 329 38 345 17 348 339 349 360 12 7
168 169 198 204 221 246 255 244 226 197 207 225 233 243 269 274 216 170 188 191 198 198 187 181 194 217 219 212 185 192 197 199 225 238 124 307 341 320 322 336 343 353 5
186 194 205 213 224 250 252 247 239 205 213 233 233 222 220 257 230 169 158 150 205 221 209 196 206 220 218 197 188 188 189 186 261 286 159 238 281 275 319 332 338 332 338
207 209 205 208 220 249 251 238 192 170 210 244 247 226 213 230 229 168 152 160 213 262 230 205 216 228 218 191 163 130 131 129 281 278 201 200 241 268 298 307 323 325 315
205 202 218 221 222 238 246 232 181 171 195 235 254 238 219 218 219 176 171 175 212 240 203 152 325 334 16 163 174 172 176 176 203 253 216 188 215 206 290 287 314 329 323
Height
1538 1538 1538 1538 1538 1538 1539 1539 1539 1539 1540 1540 1540 1540 1540 1540 1540 1540 1540 1540 1540 1539 1539 1538 1538 1537 1537 1536 1536 1535 1534 1534 1534 1533 1533 1532 1531 1530 1529 1528 1527 1525 1522
1540 1540 1540 1540 1540 1540 1540 1540 1540 1540 1541 1541 1541 1541 1541 1541 1541 1541 1540 1540 1540 1540 1539 1539 1538 1538 1537 1536 1536 1535 1534 1534 1534 1533 1532 1532 1531 1530 1529 1527 1526 1524 1521
1541 1541 1541 1541 1541 1541 1541 1541 1541 1542 1542 1542 1542 1542 1542 1541 1541 1541 1541 1541 1541 1540 1540 1539 1539 1538 1537 1537 1536 1535 1534 1534 1534 1533 1532 1532 1530 1529 1528 1527 1526 1524 1522
1543 1543 1542 1542 1542 1542 1542 1542 1543 1543 1543 1542 1542 1542 1542 1542 1542 1542 1542 1541 1541 1541 1540 1540 1539 1539 1538 1537 1536 1536 1535 1534 1534 1533 1532 1531 1530 1529 1528 1527 1525 1524 1523
1544 1544 1544 1544 1544 1544 1544 1544 1544 1544 1543 1543 1543 1543 1543 1543 1543 1543 1542 1542 1542 1541 1541 1541 1540 1539 1538 1537 1537 1536 1535 1535 1534 1534 1533 1531 1530 1529 1527 1526 1525 1524 1523
1545 1545 1545 1545 1545 1545 1545 1545 1545 1545 1545 1544 1544 1544 1544 1544 1544 1543 1543 1543 1542 1542 1542 1541 1540 1540 1539 1538 1537 1537 1536 1536 1535 1534 1533 1532 1530 1529 1527 1526 1525 1524 1523
1546 1546 1546 1546 1546 1546 1546 1546 1546 1545 1545 1545 1545 1545 1545 1545 1545 1544 1544 1544 1543 1543 1542 1542 1541 1540 1540 1538 1537 1537 1537 1536 1535 1534 1533 1532 1531 1529 1528 1526 1525 1523 1522
1547 1547 1547 1547 1547 1547 1547 1546 1546 1546 1546 1546 1546 1546 1546 1547 1546 1546 1545 1545 1544 1544 1543 1543 1542 1541 1541 1540 1539 1538 1538 1537 1536 1535 1533 1532 1531 1530 1528 1526 1523 1521 1519
1548 1548 1548 1548 1547 1547 1547 1547 1547 1547 1547 1547 1547 1547 1547 1547 1547 1547 1546 1545 1545 1544 1544 1543 1543 1542 1541 1540 1540 1539 1538 1537 1536 1535 1534 1533 1531 1530 1528 1526 1523 1519 1517
1548 1548 1548 1548 1548 1548 1547 1547 1547 1547 1547 1547 1547 1547 1548 1547 1547 1547 1547 1546 1546 1545 1544 1544 1543 1542 1542 1541 1540 1539 1538 1537 1537 1536 1535 1533 1532 1531 1529 1527 1524 1521 1520
1549 1549 1549 1548 1548 1548 1548 1548 1547 1547 1547 1547 1547 1547 1547 1547 1547 1547 1547 1547 1546 1546 1545 1544 1544 1543 1542 1541 1540 1539 1539 1538 1537 1536 1535 1534 1533 1531 1530 1528 1526 1525 1524
1549 1549 1549 1549 1549 1548 1548 1548 1548 1547 1547 1547 1547 1547 1547 1547 1547 1546 1546 1546 1546 1546 1545 1545 1544 1543 1543 1542 1541 1540 1539 1539 1538 1537 1536 1535 1533 1532 1531 1529 1528 1526 1525
1549 1549 1549 1549 1549 1549 1548 1548 1548 1547 1547 1547 1547 1547 1547 1546 1546 1546 1546 1545 1545 1545 1545 1545 1544 1544 1543 1542 1541 1540 1539 1538 1538 1537 1536 1535 1534 1533 1532 1530 1529 1528 1526
1548 1548 1548 1548 1548 1548 1548 1548 1547 1547 1547 1547 1546 1546 1546 1546 1546 1546 1545 1545 1545 1545 1544 1544 1544 1543 1543 1542 1541 1540 1539 1539 1538 1537 1536 1536 1535 1533 1532 1531 1530 1529 1528
1548 1548 1548 1548 1548 1548 1547 1547 1547 1547 1546 1546 1546 1545 1545 1545 1545 1545 1545 1545 1545 1544 1544 1544 1544 1543 1543 1542 1541 1540 1539 1539 1538 1537 1537 1536 1535 1534 1533 1532 1531 1530 1528
1547 1547 1547 1547 1547 1547 1547 1546 1546 1546 1546 1545 1545 1545 1544 1544 1544 1544 1544 1544 1544 1544 1543 1543 1543 1543 1542 1542 1541 1541 1540 1539 1538 1538 1537 1536 1535 1534 1533 1532 1531 1530 1529
1546 1546 1546 1546 1546 1546 1546 1545 1545 1545 1545 1544 1544 1544 1544 1543 1543 1543 1543 1543 1543 1543 1542 1543 1542 1542 1542 1542 1541 1540 1540 1539 1538 1538 1537 1536 1535 1535 1534 1533 1532 1530 1529
1545 1545 1545 1545 1545 1544 1544 1544 1544 1544 1543 1543 1543 1543 1543 1542 1542 1542 1542 1542 1542 1542 1542 1541 1541 1541 1541 1541 1540 1540 1539 1539 1538 1538 1537 1536 1535 1535 1534 1533 1532 1531 1529
1543 1543 1543 1543 1543 1543 1543 1542 1542 1542 1542 1542 1541 1541 1541 1541 1541 1541 1541 1540 1540 1540 1541 1540 1540 1540 1540 1540 1540 1539 1539 1538 1537 1537 1536 1536 1535 1534 1533 1532 1531 1530 1529
1542 1542 1542 1542 1542 1541 1541 1541 1541 1540 1540 1540 1540 1539 1539 1539 1539 1539 1539 1539 1539 1539 1539 1539 1539 1539 1539 1539 1539 1538 1538 1537 1536 1536 1535 1535 1534 1533 1532 1531 1530 1529 1528
1539 1540 1540 1540 1540 1539 1539 1539 1539 1538 1538 1538 1538 1537 1537 1537 1537 1537 1537 1537 1537 1537 1537 1537 1537 1537 1537 1537 1537 1537 1536 1536 1535 1535 1534 1533 1533 1532 1531 1530 1529 1528 1527
1537 1537 1537 1537 1537 1537 1537 1537 1536 1536 1536 1535 1535 1535 1535 1534 1534 1535 1535 1535 1535 1535 1535 1535 1535 1535 1535 1535 1535 1535 1534 1534 1533 1534 1532 1532 1531 1530 1530 1529 1528 1527 1526
1534 1534 1534 1534 1534 1534 1534 1534 1533 1533 1533 1532 1532 1532 1532 1532 1532 1532 1532 1532 1532 1532 1533 1533 1533 1533 1533 1533 1533 1533 1532 1532 1531 1531 1531 1529 1529 1528 1528 1527 1526 1526 1524
1530 1530 1531 1531 1531 1531 1531 1530 1530 1530 1529 1529 1529 1529 1529 1529 1529 1529 1529 1529 1529 1529 1530 1530 1530 1530 1531 1531 1531 1531 1530 1530 1529 1529 1529 1527 1527 1526 1526 1525 1524 1524 1523
1526 1527 1527 1527 1527 1527 1527 1527 1527 1526 1526 1526 1526 1526 1526 1526 1526 1526 1526 1526 1526 1526 1527 1527 1527 1528 1528 1528 1528 1528 1528 1527 1527 1526 1526 1525 1524 1523 1523 1522 1522 1521 1520
1523 1523 1523 1524 1524 1523 1523 1523 1523 1522 1522 1522 1522 1523 1523 1523 1523 1522 1522 1523 1523 1523 1524 1524 1524 1524 1525 1525 1525 1525 1525 1525 1524 1523 1523 1523 1521 1521 1520 1519 1519 1518 1517